Location: Ljubljana
(46.0552°N, 14.5144°E)
Time: 03:35:12
(UTC+01:00)

ISS - Visible Passes

Search period start: 22 January 2019 00:00
Search period end: 01 February 2019 00:00
Orbit: 404 x 410 km, 51.6° (Epoch: 22 January)

Date Brightness Start Highest point End Pass type
(mag) Time Alt. Az. Time Alt. Az. Time Alt. Az.
22 Jan -1.4 17:55:55 10° SE 17:56:32 10° SE 17:57:07 10° ESE visible
22 Jan -1.0 19:29:13 10° SW 19:30:01 16° SW 19:30:01 16° SW visible
23 Jan -3.1 18:38:09 10° SSW 18:41:05 38° SSE 18:41:05 38° SSE visible
24 Jan -2.2 17:47:22 10° SSW 17:50:02 23° SE 17:52:04 14° E visible
24 Jan -1.7 19:23:03 10° WSW 19:24:48 28° W 19:24:48 28° W visible
25 Jan -3.9 18:31:41 10° WSW 18:34:59 82° SSE 18:35:42 51° ENE visible
26 Jan -3.3 17:40:28 10° SW 17:43:39 49° SE 17:46:33 12° ENE visible
26 Jan -2.1 19:17:07 10° W 19:19:16 31° WNW 19:19:16 31° WNW visible
27 Jan -3.4 18:25:33 10° W 18:28:48 54° NNW 18:30:03 32° NE visible
28 Jan -3.8 17:34:04 10° WSW 17:37:22 81° NNW 17:40:41 10° ENE visible
28 Jan -2.1 19:11:12 10° WNW 19:13:30 28° NNW 19:13:30 28° NNW visible
29 Jan -2.8 18:19:35 10° W 18:22:40 36° NNW 18:24:13 23° NE visible
29 Jan -0.4 19:56:43 10° WNW 19:56:55 11° WNW 19:56:55 11° WNW visible
30 Jan -2.2 19:05:12 10° WNW 19:07:36 28° NNW 19:07:36 28° NNW visible
31 Jan -2.5 18:13:35 10° WNW 18:16:33 30° N 18:18:17 19° NE visible
31 Jan -0.7 19:50:28 10° WNW 19:50:59 14° NW 19:50:59 14° NW visible
